Regional Weather Roundup
Issued by NWS

Home | Current Version | Previous Version | Text Only | Print | Product List | Glossary On
Versions: 1 2 3 4 5 6 7 8 9 10 11 12 13 14 15 16 17 18 19 20 21 22 23 24 25 26 27 28 29 30 31 32 33 34 35 36 37 38 39 40 41 42 43 44 45 46 47 48 49 50
000
ASUS43 KDTX 302210
RWRMI
MICHIGAN HOURLY REGIONAL WEATHER ROUNDUP
NATIONAL WEATHER SERVICE DETROIT/PONTIAC MI
600 PM EDT TUE JUN 30 2015

NOTE: "FAIR" INDICATES FEW OR NO CLOUDS BELOW 12,000 FEET WITH NO
SIGNIFICANT WEATHER AND/OR OBSTRUCTION TO VISIBILITY.

MIZ047>049-052>055-059>063-066>070-074>076-081>083-302300-
SOUTHEAST LOWER MICHIGAN

CITY           SKY/WX    TMP DP  RH WIND       PRES   REMARKS
ADRIAN         MOSUNNY   74  62  66 SW3       29.75F
ALMA           CLOUDY    69  65  85 N5        29.77S
ANN ARBOR      MOSUNNY   73  63  70 NW3       29.74F
BAD AXE        CLOUDY    66  58  73 E5        29.78R
CARO           CLOUDY    71  61  70 NE5       29.75S
DETROIT CITY   PTSUNNY   75  59  57 W8        29.73F
DETROIT        CLOUDY    74  61  63 W5        29.74F
FLINT          PTSUNNY   73  61  65 N5        29.75S
GROSSE ILE     MOSUNNY   75  63  64 S5        29.73F
HILLSDALE      PTSUNNY   70  68  92 CALM      29.78S
HOWELL         LGT RAIN  67  64  87 CALM      29.76S

CITY           SKY/WX    TMP DP  RH WIND       PRES   REMARKS
JACKSON        PTSUNNY   66  63  90 N10       29.77R THUNDER
LAMBERTVILLE   MOSUNNY   76  63  63 W7        29.75F
LANSING        MOSUNNY   71  63  75 NW6       29.76S
LAPEER         CLOUDY    69  60  74 CALM      29.76S
MASON          PTSUNNY   65  63  92 CALM      29.77R
MONROE         PTSUNNY   75  63  65 SW8       29.73F
MT. CLEMENS    PTSUNNY   67  64  90 E8        29.73F
PONTIAC        LGT RAIN  71  61  70 W12       29.74S
PORT HOPE        N/A     64  57  78 N3        29.77S
PORT HURON     LGT RAIN  66  63  88 NE6       29.76R
TRI CITIES     LGT RAIN  69  61  75 NE12      29.77S
MIDLAND        LGT RAIN  67  60  78 CALM      29.76S
TROY           PTSUNNY   76  60  57 W7        29.75F
SAGINAW HB     CLOUDY    70  59  68 N7        29.75S
$$
MIZ043>046-050>051-056>058-064>065-071>073-077>080-302300-
SOUTHWEST LOWER MICHIGAN

CITY           SKY/WX    TMP DP  RH WIND       PRES   REMARKS
BATTLE CREEK   PTSUNNY   73  60  63 W15G23    29.78S
BENTON HARBOR  CLOUDY    64  60  87 NW9G18    29.82R
BIG RAPIDS     CLOUDY    68  60  74 W7        29.77S
COLDWATER      MOSUNNY   71  58  64 W14G21    29.78R
FREMONT        CLOUDY    70  63  79 NW14      29.78S
HOLLAND        CLOUDY    65  61  87 NW9       29.80S FOG
GRAND RAPIDS   CLOUDY    70  60  70 W12       29.77R
IONIA          LGT RAIN  70  63  79 NW7       29.76S
KALAMAZOO      PTSUNNY   71  59  65 W14       29.78S
LUDINGTON      CLOUDY    61  56  84 N13G20    29.83R
MARSHALL       PTSUNNY   72  59  64 NW10G18   29.76S
MOUNT PLEASANT CLOUDY    69  62  79 SW5       29.76S
MUSKEGON       PTSUNNY   71  61  70 NW12      29.78S
SOUTH HAVEN    CLOUDY    63  59  88 NW12      29.82R FOG
$$
MIZ016>042-302300-
NORTHERN LOWER MICHIGAN

CITY           SKY/WX    TMP DP  RH WIND       PRES   REMARKS
ALPENA         CLOUDY    65  60  84 CALM      29.81S
BEAVER ISLAND  CLOUDY    57  52  81 NW9G16    29.84R
BELLAIRE       CLOUDY    64  56  75 NW6       29.81R
CADILLAC       CLOUDY    65  58  80 N8G17     29.80S
CHARLEVOIX     CLOUDY    59  56  89 N9        29.85S
FRANKFORT      CLOUDY    58  49  71 N7        29.85R
GAYLORD        LGT RAIN  63  62  97 E5        29.81F
GRAYLING       LGT RAIN  63  60  90 NE6       29.81S
HARBOR SPRINGS DRIZZLE   61  59  93 N3        29.81R
HOUGHTON LAKE  CLOUDY    63  58  83 E9        29.79F
MANISTEE       CLOUDY   N/A N/A N/A N13G18    29.84R
OSCODA         CLOUDY    68  57  68 NE6       29.79R
PELLSTON       CLOUDY    64  61  90 NW8       29.81S
ROGERS CITY    LGT RAIN  64  61  90 S3        29.82S
TRAVERSE CITY  CLOUDY    56  52  86 NW8       29.82R
$$
MIZ007>008-015-302300-
EASTERN UPPER MICHIGAN

CITY           SKY/WX    TMP DP  RH WIND       PRES   REMARKS
KINROSS        CLOUDY    54  54 100 N9        29.83S
MACKINAC ISLAN LGT RAIN  62  62 100 N6        29.81R
NEWBERRY       CLOUDY    53  50  91 NW8       29.84S
S. S. MARIE    LGT RAIN  55  53  93 NW8       29.83S
MUNISING         N/A     47  44  90 NW15      29.91S
$$
MIZ004>006-011>014-085-302300-
CENTRAL UPPER MICHIGAN

CITY           SKY/WX    TMP DP  RH WIND       PRES   REMARKS
MANISTIQUE     PTSUNNY   54  46  75 NW20G29   29.86R
ESCANABA       CLOUDY   N/A N/A N/A N12G21    29.88R
MENOMINEE      CLOUDY    64  52  63 N14       29.86R
SAWYER-GWINN   CLOUDY    48  43  81 N13G20    29.92S
$$
MIZ001>003-009>011-084-302300-
WESTERN UPPER MICHIGAN

CITY           SKY/WX    TMP DP  RH WIND       PRES   REMARKS
IRON MOUNTAIN  CLOUDY    56  47  71 NW15      29.91R
HOUGHTON       SUNNY     58  41  53 N13G20    29.96S
COPPER HARBOR    N/A     51  41  68 N7        29.96S
IRONWOOD       SUNNY     57  48  72 NE7       29.95F
$$

ABBREVIATIONS USED IN REMARKS
   TC - TEMPERATURE IN CELSIUS
  WCI - WIND CHILL INDEX
   HX - HEAT INDEX
  VSB - VISIBILITY




USA.gov is the U.S. government's official web portal to all federal, state and local government web resources and services.